Location: Boissi�res
(45.2500°N, 2.3667°E)
Time: 20:05:47
(UTC+00:00)

Okean 1-7 - Pass Details

Date: 03 March 2021
Orbit: 589 x 619 km, 82.5° (Epoch: 17 April)

Event Time Altitude Azimuth Distance (km) Brightness Sun altitude
Rises 19:35:04 0° 347° (NNW) 2,896 6.8 -20.8°
Reaches altitude 10° 19:37:20 10° 344° (NNW) 1,982 6.0 -21.2°
Maximum altitude 19:41:39 60° 265° (W) 702 3.5 -22.0°
Enters shadow 19:45:47 11° 186° (S) 1,904 5.5 -22.7°
